QPF
0.01 0.02 0.02 0.01 0.00 0.00 0.00 0.00 0.01 0.01 0.02 0.02 0.02 0.02 0.02 0.03 0.04 0.03 0.02 0.03 0.02 0.02 0.01 0.01 0.01 0.01 0.01 0.01 0.01 0.00 0.00 0.00 0.00 0.00 0.00 0.00 0.01 0.01 0.00 0.00 0.01 0.02 0.02
0.00 0.01 0.02 0.01 0.00 0.00 0.00 0.01 0.00 0.01 0.01 0.02 0.02 0.02 0.03 0.03 0.03 0.02 0.03 0.03 0.02 0.01 0.01 0.01 0.01 0.01 0.00 0.00 0.00 0.00 0.00 0.00 0.00 0.00 0.00 0.00 0.00 0.00 0.00 0.00 0.00 0.01 0.01
0.00 0.01 0.01 0.01 0.00 0.00 0.00 0.00 0.00 0.00 0.01 0.02 0.02 0.02 0.03 0.03 0.03 0.02 0.02 0.02 0.01 0.01 0.01 0.01 0.00 0.00 0.00 0.00 0.00 0.00 0.00 0.00 0.00 0.00 0.00 0.00 0.00 0.01 0.01 0.00 0.00 0.01 0.01
0.00 0.01 0.01 0.01 0.00 0.00 0.00 0.00 0.00 0.00 0.01 0.02 0.02 0.03 0.03 0.03 0.02 0.02 0.01 0.01 0.01 0.00 0.00 0.00 0.00 0.00 0.00 0.00 0.00 0.00 0.00 0.00 0.00 0.00 0.00 0.00 0.00 0.01 0.01 0.01 0.00 0.00 0.00
0.01 0.01 0.01 0.01 0.01 0.00 0.00 0.00 0.00 0.01 0.02 0.02 0.02 0.03 0.03 0.03 0.02 0.01 0.01 0.01 0.00 0.00 0.00 0.00 0.00 0.00 0.00 0.00 0.00 0.00 0.00 0.00 0.00 0.00 0.00 0.00 0.00 0.00 0.00 0.00 0.00 0.00 0.00
0.01 0.01 0.01 0.01 0.01 0.00 0.00 0.00 0.00 0.01 0.02 0.03 0.03 0.03 0.03 0.03 0.03 0.02 0.01 0.00 0.00 0.00 0.00 0.00 0.00 0.00 0.00 0.00 0.00 0.00 0.00 0.00 0.00 0.00 0.00 0.00 0.00 0.00 0.00 0.00 0.00 0.00 0.00
0.02 0.02 0.02 0.01 0.01 0.00 0.00 0.00 0.00 0.01 0.01 0.02 0.02 0.02 0.03 0.03 0.02 0.02 0.01 0.00 0.00 0.00 0.00 0.00 0.00 0.00 0.00 0.00 0.00 0.00 0.00 0.00 0.00 0.00 0.00 0.00 0.00 0.00 0.00 0.00 0.00 0.00 0.00
0.03 0.03 0.03 0.02 0.01 0.01 0.01 0.00 0.01 0.01 0.01 0.02 0.02 0.02 0.02 0.03 0.02 0.01 0.00 0.00 0.00 0.00 0.00 0.00 0.00 0.00 0.00 0.00 0.00 0.00 0.00 0.00 0.00 0.00 0.00 0.00 0.00 0.00 0.00 0.00 0.00 0.00 0.00
0.07 0.05 0.04 0.03 0.02 0.01 0.01 0.01 0.01 0.01 0.01 0.02 0.02 0.01 0.02 0.02 0.02 0.01 0.00 0.00 0.00 0.00 0.00 0.00 0.00 0.00 0.00 0.00 0.00 0.00 0.00 0.00 0.00 0.00 0.00 0.00 0.00 0.00 0.00 0.00 0.00 0.00 0.00
0.11 0.10 0.06 0.04 0.02 0.01 0.01 0.01 0.01 0.01 0.01 0.01 0.01 0.01 0.01 0.02 0.01 0.01 0.00 0.00 0.00 0.00 0.00 0.00 0.00 0.00 0.00 0.00 0.00 0.00 0.00 0.00 0.00 0.00 0.00 0.00 0.00 0.00 0.00 0.00 0.00 0.00 0.00
0.15 0.13 0.08 0.04 0.03 0.01 0.01 0.01 0.01 0.01 0.01 0.01 0.01 0.00 0.01 0.01 0.01 0.00 0.00 0.00 0.00 0.00 0.00 0.00 0.00 0.00 0.00 0.00 0.00 0.00 0.00 0.00 0.00 0.00 0.00 0.00 0.00 0.00 0.00 0.00 0.00 0.00 0.00
0.15 0.12 0.09 0.05 0.03 0.02 0.01 0.01 0.01 0.01 0.01 0.01 0.00 0.00 0.01 0.01 0.01 0.01 0.00 0.00 0.00 0.00 0.00 0.00 0.00 0.00 0.00 0.00 0.00 0.00 0.00 0.00 0.00 0.00 0.00 0.00 0.00 0.00 0.00 0.00 0.00 0.00 0.00
0.17 0.14 0.11 0.06 0.03 0.02 0.01 0.01 0.01 0.01 0.01 0.01 0.00 0.00 0.00 0.01 0.01 0.01 0.00 0.00 0.00 0.00 0.00 0.00 0.00 0.00 0.00 0.00 0.00 0.00 0.00 0.00 0.00 0.00 0.00 0.00 0.00 0.00 0.01 0.01 0.01 0.01 0.01
0.20 0.15 0.15 0.10 0.05 0.02 0.01 0.01 0.01 0.00 0.00 0.00 0.00 0.00 0.00 0.00 0.01 0.00 0.00 0.00 0.00 0.00 0.00 0.00 0.00 0.00 0.00 0.00 0.00 0.00 0.00 0.00 0.00 0.00 0.00 0.00 0.00 0.00 0.01 0.01 0.01 0.01 0.02
0.19 0.17 0.18 0.15 0.08 0.03 0.02 0.01 0.00 0.01 0.01 0.01 0.01 0.01 0.00 0.00 0.00 0.00 0.00 0.00 0.00 0.00 0.00 0.00 0.00 0.00 0.00 0.00 0.00 0.00 0.00 0.00 0.00 0.00 0.00 0.00 0.00 0.00 0.00 0.00 0.01 0.01 0.02
0.16 0.15 0.16 0.17 0.13 0.06 0.03 0.01 0.00 0.01 0.01 0.01 0.01 0.01 0.01 0.01 0.00 0.00 0.00 0.00 0.00 0.00 0.00 0.01 0.01 0.01 0.01 0.00 0.00 0.00 0.00 0.00 0.00 0.00 0.00 0.00 0.00 0.00 0.00 0.00 0.01 0.01 0.02
0.17 0.16 0.15 0.17 0.18 0.11 0.05 0.03 0.01 0.01 0.01 0.01 0.01 0.01 0.01 0.01 0.00 0.00 0.01 0.01 0.01 0.01 0.01 0.01 0.01 0.00 0.00 0.00 0.00 0.00 0.00 0.00 0.00 0.00 0.00 0.00 0.00 0.00 0.00 0.01 0.01 0.02 0.02
0.23 0.22 0.18 0.18 0.23 0.20 0.11 0.07 0.04 0.02 0.01 0.01 0.01 0.01 0.01 0.01 0.01 0.01 0.01 0.01 0.00 0.00 0.01 0.01 0.00 0.00 0.00 0.00 0.00 0.00 0.01 0.01 0.00 0.00 0.00 0.00 0.00 0.00 0.00 0.00 0.01 0.01 0.01
0.29 0.25 0.22 0.21 0.24 0.28 0.21 0.12 0.07 0.04 0.03 0.02 0.03 0.03 0.03 0.03 0.03 0.04 0.04 0.03 0.02 0.02 0.02 0.02 0.02 0.01 0.01 0.01 0.01 0.01 0.01 0.01 0.00 0.00 0.00 0.00 0.00 0.00 0.00 0.00 0.00 0.00 0.01
0.34 0.34 0.30 0.28 0.24 0.26 0.31 0.24 0.14 0.09 0.07 0.07 0.06 0.06 0.06 0.05 0.04 0.04 0.04 0.04 0.04 0.04 0.04 0.04 0.03 0.02 0.02 0.02 0.01 0.01 0.01 0.01 0.01 0.00 0.00 0.00 0.00 0.00 0.00 0.00 0.00 0.00 0.00
0.27 0.33 0.34 0.38 0.40 0.34 0.31 0.30 0.22 0.13 0.10 0.08 0.07 0.07 0.07 0.07 0.07 0.07 0.06 0.05 0.05 0.04 0.04 0.04 0.04 0.04 0.04 0.03 0.03 0.02 0.01 0.01 0.01 0.00 0.00 0.00 0.00 0.00 0.00 0.00 0.00 0.00 0.00
0.23 0.25 0.27 0.28 0.34 0.39 0.35 0.29 0.26 0.20 0.14 0.12 0.10 0.08 0.07 0.08 0.08 0.09 0.08 0.08 0.08 0.08 0.06 0.06 0.06 0.06 0.06 0.05 0.04 0.02 0.01 0.00 0.00 0.00 0.00 0.00 0.00 0.00 0.00 0.00 0.00 0.00 0.00
0.19 0.20 0.21 0.21 0.21 0.26 0.33 0.29 0.27 0.25 0.21 0.15 0.12 0.11 0.11 0.11 0.10 0.10 0.11 0.12 0.12 0.11 0.10 0.10 0.08 0.07 0.05 0.04 0.04 0.04 0.02 0.01 0.01 0.01 0.01 0.01 0.01 0.01 0.01 0.00 0.00 0.00 0.00
0.12 0.16 0.18 0.19 0.20 0.23 0.30 0.28 0.23 0.19 0.18 0.17 0.14 0.13 0.13 0.13 0.13 0.13 0.13 0.13 0.14 0.14 0.14 0.12 0.10 0.08 0.06 0.05 0.04 0.03 0.03 0.03 0.02 0.02 0.01 0.00 0.00 0.00 0.00 0.00 0.00 0.00 0.00
0.06 0.11 0.14 0.17 0.18 0.20 0.25 0.24 0.23 0.23 0.23 0.23 0.21 0.17 0.14 0.12 0.13 0.14 0.15 0.16 0.15 0.14 0.13 0.10 0.10 0.08 0.06 0.05 0.04 0.04 0.04 0.03 0.03 0.02 0.01 0.00 0.00 0.00 0.00 0.00 0.00 0.00 0.00
0.03 0.06 0.09 0.12 0.14 0.15 0.18 0.20 0.22 0.21 0.20 0.22 0.24 0.23 0.20 0.18 0.17 0.15 0.15 0.14 0.13 0.12 0.11 0.11 0.10 0.09 0.07 0.06 0.06 0.05 0.04 0.03 0.02 0.02 0.01 0.01 0.00 0.00 0.00 0.00 0.00 0.00 0.00
MSLP
1011.46 1011.82 1012.28 1012.78 1013.25 1013.62 1013.88 1014.03 1014.09 1014.13 1014.18 1014.31 1014.53 1014.83 1015.20 1015.57 1015.93 1016.22 1016.44 1016.60 1016.73 1016.84 1016.97 1017.13 1017.32 1017.52 1017.70 1017.84 1017.94 1017.98 1017.99 1017.98 1017.97 1017.98 1018.01 1018.07 1018.12 1018.15 1018.15 1018.10 1018.01 1017.88 1017.74
1010.94 1011.38 1011.95 1012.56 1013.14 1013.61 1013.94 1014.11 1014.18 1014.20 1014.24 1014.36 1014.58 1014.91 1015.31 1015.73 1016.12 1016.44 1016.68 1016.85 1016.97 1017.09 1017.22 1017.40 1017.61 1017.84 1018.05 1018.23 1018.35 1018.40 1018.41 1018.40 1018.38 1018.40 1018.44 1018.50 1018.57 1018.61 1018.61 1018.56 1018.45 1018.30 1018.12
1010.43 1010.92 1011.56 1012.28 1012.96 1013.53 1013.92 1014.15 1014.24 1014.27 1014.30 1014.42 1014.65 1014.98 1015.40 1015.85 1016.27 1016.61 1016.87 1017.06 1017.19 1017.32 1017.48 1017.67 1017.91 1018.17 1018.41 1018.60 1018.73 1018.79 1018.80 1018.77 1018.75 1018.76 1018.80 1018.86 1018.94 1019.00 1019.01 1018.96 1018.85 1018.69 1018.49
1010.06 1010.56 1011.24 1012.02 1012.78 1013.42 1013.88 1014.16 1014.28 1014.33 1014.37 1014.49 1014.72 1015.06 1015.49 1015.94 1016.38 1016.75 1017.03 1017.24 1017.40 1017.55 1017.73 1017.96 1018.22 1018.50 1018.76 1018.96 1019.09 1019.15 1019.14 1019.10 1019.06 1019.05 1019.08 1019.15 1019.23 1019.30 1019.33 1019.30 1019.20 1019.05 1018.86
1009.93 1010.40 1011.09 1011.88 1012.67 1013.35 1013.85 1014.17 1014.32 1014.39 1014.45 1014.57 1014.80 1015.15 1015.58 1016.04 1016.49 1016.87 1017.18 1017.42 1017.61 1017.80 1018.01 1018.26 1018.54 1018.84 1019.10 1019.31 1019.43 1019.47 1019.44 1019.38 1019.32 1019.29 1019.31 1019.37 1019.46 1019.54 1019.59 1019.58 1019.51 1019.39 1019.23
1010.08 1010.50 1011.15 1011.91 1012.69 1013.36 1013.88 1014.21 1014.39 1014.48 1014.56 1014.70 1014.93 1015.28 1015.70 1016.17 1016.62 1017.02 1017.35 1017.62 1017.85 1018.07 1018.31 1018.58 1018.88 1019.17 1019.43 1019.62 1019.73 1019.75 1019.70 1019.62 1019.54 1019.50 1019.51 1019.56 1019.65 1019.74 1019.81 1019.84 1019.81 1019.72 1019.60
1010.47 1010.84 1011.41 1012.11 1012.83 1013.46 1013.96 1014.29 1014.49 1014.61 1014.72 1014.87 1015.12 1015.47 1015.89 1016.35 1016.81 1017.22 1017.57 1017.86 1018.12 1018.37 1018.63 1018.91 1019.21 1019.49 1019.73 1019.90 1019.99 1019.99 1019.93 1019.84 1019.74 1019.69 1019.69 1019.74 1019.83 1019.94 1020.03 1020.08 1020.09 1020.05 1019.97
1011.01 1011.33 1011.82 1012.43 1013.05 1013.62 1014.07 1014.40 1014.62 1014.77 1014.91 1015.11 1015.38 1015.73 1016.15 1016.61 1017.06 1017.47 1017.83 1018.14 1018.41 1018.68 1018.95 1019.22 1019.50 1019.77 1019.98 1020.12 1020.19 1020.18 1020.11 1020.02 1019.93 1019.88 1019.89 1019.94 1020.03 1020.14 1020.25 1020.32 1020.36 1020.35 1020.31
1011.59 1011.86 1012.26 1012.76 1013.28 1013.77 1014.17 1014.49 1014.73 1014.93 1015.13 1015.37 1015.68 1016.05 1016.48 1016.92 1017.36 1017.76 1018.12 1018.43 1018.71 1018.97 1019.23 1019.49 1019.74 1019.96 1020.14 1020.26 1020.31 1020.30 1020.24 1020.16 1020.10 1020.06 1020.08 1020.14 1020.24 1020.35 1020.46 1020.55 1020.60 1020.61 1020.59
1012.07 1012.30 1012.63 1013.02 1013.43 1013.83 1014.20 1014.52 1014.80 1015.06 1015.33 1015.64 1015.99 1016.39 1016.82 1017.25 1017.67 1018.05 1018.39 1018.69 1018.96 1019.21 1019.45 1019.67 1019.88 1020.07 1020.21 1020.30 1020.34 1020.33 1020.29 1020.25 1020.22 1020.22 1020.25 1020.33 1020.43 1020.54 1020.64 1020.72 1020.77 1020.79 1020.78
1012.38 1012.58 1012.83 1013.12 1013.44 1013.77 1014.11 1014.44 1014.77 1015.11 1015.47 1015.86 1016.26 1016.69 1017.12 1017.53 1017.93 1018.28 1018.60 1018.88 1019.13 1019.36 1019.57 1019.77 1019.93 1020.07 1020.18 1020.24 1020.27 1020.28 1020.27 1020.26 1020.27 1020.31 1020.37 1020.46 1020.56 1020.66 1020.75 1020.81 1020.85 1020.86 1020.85
1012.49 1012.67 1012.85 1013.05 1013.29 1013.56 1013.88 1014.24 1014.64 1015.06 1015.52 1015.98 1016.44 1016.89 1017.32 1017.72 1018.08 1018.41 1018.71 1018.97 1019.21 1019.42 1019.61 1019.77 1019.90 1020.00 1020.07 1020.11 1020.13 1020.15 1020.17 1020.20 1020.25 1020.32 1020.41 1020.50 1020.60 1020.68 1020.75 1020.80 1020.82 1020.82 1020.79
1012.44 1012.57 1012.69 1012.82 1012.99 1013.22 1013.54 1013.93 1014.40 1014.91 1015.45 1015.99 1016.50 1016.97 1017.39 1017.77 1018.11 1018.41 1018.69 1018.94 1019.17 1019.38 1019.55 1019.70 1019.80 1019.87 1019.91 1019.93 1019.95 1019.97 1020.01 1020.07 1020.15 1020.24 1020.34 1020.44 1020.53 1020.59 1020.64 1020.66 1020.67 1020.66 1020.64
1012.26 1012.36 1012.42 1012.48 1012.60 1012.81 1013.14 1013.57 1014.10 1014.69 1015.30 1015.89 1016.43 1016.91 1017.32 1017.68 1017.99 1018.28 1018.55 1018.81 1019.05 1019.26 1019.45 1019.59 1019.68 1019.73 1019.75 1019.76 1019.76 1019.78 1019.82 1019.89 1019.99 1020.09 1020.19 1020.28 1020.35 1020.40 1020.43 1020.44 1020.44 1020.43 1020.41
1012.02 1012.09 1012.10 1012.12 1012.21 1012.41 1012.74 1013.21 1013.79 1014.43 1015.09 1015.71 1016.26 1016.74 1017.13 1017.46 1017.76 1018.04 1018.31 1018.59 1018.86 1019.11 1019.31 1019.47 1019.57 1019.61 1019.62 1019.61 1019.60 1019.61 1019.64 1019.71 1019.79 1019.89 1019.98 1020.06 1020.11 1020.15 1020.16 1020.17 1020.17 1020.17 1020.19
1011.77 1011.81 1011.80 1011.80 1011.88 1012.08 1012.43 1012.93 1013.53 1014.21 1014.88 1015.50 1016.04 1016.49 1016.86 1017.17 1017.44 1017.72 1018.02 1018.33 1018.64 1018.93 1019.18 1019.37 1019.49 1019.53 1019.53 1019.51 1019.48 1019.47 1019.49 1019.54 1019.61 1019.69 1019.76 1019.82 1019.86 1019.88 1019.89 1019.91 1019.93 1019.96 1020.01
1011.52 1011.57 1011.56 1011.57 1011.65 1011.87 1012.24 1012.75 1013.37 1014.05 1014.71 1015.31 1015.82 1016.23 1016.55 1016.83 1017.10 1017.39 1017.71 1018.06 1018.42 1018.76 1019.06 1019.28 1019.42 1019.49 1019.49 1019.45 1019.41 1019.38 1019.38 1019.40 1019.45 1019.51 1019.57 1019.61 1019.65 1019.67 1019.69 1019.72 1019.77 1019.83 1019.92
1011.28 1011.35 1011.37 1011.41 1011.53 1011.78 1012.17 1012.70 1013.32 1013.98 1014.61 1015.16 1015.62 1015.98 1016.26 1016.51 1016.77 1017.06 1017.41 1017.80 1018.21 1018.60 1018.94 1019.20 1019.37 1019.45 1019.46 1019.42 1019.37 1019.33 1019.31 1019.32 1019.35 1019.39 1019.44 1019.48 1019.52 1019.55 1019.59 1019.65 1019.72 1019.83 1019.95
1011.00 1011.13 1011.20 1011.30 1011.48 1011.77 1012.19 1012.73 1013.35 1013.97 1014.56 1015.05 1015.45 1015.76 1016.00 1016.22 1016.47 1016.77 1017.14 1017.56 1018.01 1018.44 1018.81 1019.10 1019.29 1019.39 1019.41 1019.38 1019.33 1019.29 1019.27 1019.27 1019.30 1019.34 1019.39 1019.44 1019.49 1019.54 1019.61 1019.69 1019.81 1019.94 1020.08
1010.68 1010.86 1011.01 1011.18 1011.42 1011.77 1012.24 1012.79 1013.39 1013.99 1014.52 1014.96 1015.30 1015.56 1015.77 1015.97 1016.21 1016.51 1016.89 1017.34 1017.80 1018.25 1018.64 1018.95 1019.16 1019.27 1019.30 1019.29 1019.25 1019.23 1019.22 1019.24 1019.28 1019.34 1019.40 1019.47 1019.55 1019.63 1019.73 1019.85 1019.99 1020.14 1020.30
1010.28 1010.52 1010.74 1010.99 1011.31 1011.72 1012.22 1012.79 1013.38 1013.95 1014.44 1014.83 1015.13 1015.35 1015.53 1015.72 1015.96 1016.27 1016.66 1017.11 1017.58 1018.03 1018.42 1018.73 1018.95 1019.07 1019.12 1019.13 1019.13 1019.13 1019.15 1019.20 1019.27 1019.36 1019.45 1019.56 1019.67 1019.79 1019.93 1020.08 1020.24 1020.41 1020.56
1009.81 1010.09 1010.36 1010.67 1011.05 1011.52 1012.07 1012.65 1013.24 1013.79 1014.25 1014.61 1014.88 1015.08 1015.26 1015.45 1015.70 1016.02 1016.41 1016.86 1017.33 1017.77 1018.15 1018.45 1018.67 1018.80 1018.87 1018.91 1018.94 1018.98 1019.05 1019.13 1019.24 1019.37 1019.50 1019.65 1019.80 1019.96 1020.14 1020.32 1020.51 1020.68 1020.83
1009.28 1009.55 1009.85 1010.20 1010.63 1011.14 1011.71 1012.32 1012.91 1013.45 1013.89 1014.25 1014.51 1014.72 1014.91 1015.13 1015.40 1015.74 1016.14 1016.59 1017.04 1017.47 1017.83 1018.12 1018.33 1018.48 1018.57 1018.64 1018.71 1018.80 1018.90 1019.04 1019.19 1019.35 1019.53 1019.71 1019.90 1020.11 1020.32 1020.54 1020.75 1020.93 1021.09
1008.70 1008.93 1009.21 1009.56 1010.01 1010.55 1011.14 1011.76 1012.35 1012.89 1013.35 1013.71 1014.00 1014.24 1014.47 1014.73 1015.04 1015.41 1015.84 1016.29 1016.73 1017.14 1017.49 1017.77 1017.98 1018.13 1018.25 1018.35 1018.46 1018.59 1018.74 1018.91 1019.09 1019.29 1019.50 1019.72 1019.95 1020.19 1020.44 1020.69 1020.93 1021.14 1021.30
1008.10 1008.24 1008.47 1008.80 1009.24 1009.77 1010.37 1010.99 1011.59 1012.14 1012.61 1013.01 1013.34 1013.64 1013.93 1014.26 1014.63 1015.04 1015.49 1015.96 1016.40 1016.81 1017.15 1017.42 1017.64 1017.80 1017.95 1018.09 1018.23 1018.40 1018.58 1018.78 1018.99 1019.20 1019.43 1019.67 1019.92 1020.20 1020.48 1020.77 1021.05 1021.29 1021.49
1007.50 1007.53 1007.67 1007.95 1008.35 1008.86 1009.45 1010.07 1010.68 1011.24 1011.74 1012.18 1012.57 1012.94 1013.31 1013.72 1014.16 1014.63 1015.12 1015.61 1016.07 1016.48 1016.82 1017.10 1017.33 1017.52 1017.70 1017.87 1018.05 1018.25 1018.45 1018.67 1018.89 1019.11 1019.34 1019.59 1019.86 1020.15 1020.47 1020.80 1021.12 1021.41 1021.65
Thickness
5768 5766 5761 5759 5757 5756 5755 5754 5753 5752 5751 5750 5749 5747 5745 5744 5742 5741 5739 5737 5736 5735 5733 5732 5730 5729 5728 5727 5726 5726 5725 5724 5723 5723 5722 5722 5721 5721 5720 5720 5720 5719 5716
5768 5764 5757 5756 5754 5753 5752 5751 5750 5749 5748 5747 5746 5744 5743 5741 5740 5738 5736 5735 5733 5732 5730 5729 5727 5726 5724 5724 5723 5722 5721 5720 5720 5719 5720 5719 5718 5717 5716 5715 5715 5714 5713
5764 5760 5754 5752 5751 5750 5749 5748 5747 5746 5745 5744 5743 5742 5740 5738 5737 5735 5733 5732 5730 5728 5727 5725 5724 5722 5721 5720 5719 5718 5718 5717 5716 5717 5719 5719 5715 5713 5712 5711 5711 5710 5709
5758 5755 5752 5748 5747 5746 5745 5744 5743 5742 5742 5741 5740 5738 5737 5735 5733 5732 5730 5728 5726 5725 5723 5721 5720 5719 5718 5717 5716 5715 5714 5713 5713 5715 5717 5716 5713 5710 5709 5708 5707 5706 5705
5752 5750 5746 5743 5742 5741 5740 5740 5739 5739 5738 5737 5736 5735 5733 5731 5730 5728 5726 5725 5723 5721 5719 5718 5716 5715 5714 5713 5712 5711 5711 5710 5711 5713 5712 5711 5709 5706 5705 5704 5703 5702 5701
5745 5744 5740 5738 5737 5736 5736 5735 5735 5734 5734 5733 5732 5730 5729 5727 5726 5724 5722 5720 5718 5717 5715 5714 5713 5711 5710 5710 5709 5708 5707 5707 5709 5710 5709 5708 5706 5702 5701 5700 5699 5698 5697
5739 5738 5734 5732 5732 5731 5730 5730 5730 5729 5729 5728 5727 5726 5725 5723 5721 5719 5717 5716 5714 5713 5711 5710 5709 5708 5707 5706 5705 5704 5704 5704 5707 5706 5705 5704 5701 5699 5698 5697 5695 5694 5693
5732 5731 5728 5726 5726 5726 5725 5725 5725 5724 5724 5724 5723 5721 5720 5718 5717 5715 5713 5711 5710 5709 5707 5706 5705 5704 5703 5702 5702 5701 5700 5701 5702 5703 5702 5700 5696 5695 5694 5693 5692 5690 5689
5724 5724 5723 5721 5720 5720 5720 5720 5719 5719 5719 5718 5717 5716 5715 5713 5712 5710 5709 5707 5706 5704 5703 5702 5701 5700 5700 5699 5698 5697 5697 5698 5701 5699 5698 5696 5693 5691 5690 5689 5688 5686 5685
5716 5717 5718 5718 5717 5716 5715 5714 5714 5714 5713 5713 5712 5710 5709 5708 5706 5705 5704 5703 5702 5700 5699 5698 5697 5696 5696 5695 5694 5694 5694 5695 5697 5696 5695 5692 5689 5688 5687 5685 5684 5682 5681
5706 5710 5712 5713 5713 5712 5712 5710 5709 5708 5707 5707 5706 5705 5704 5704 5703 5701 5700 5698 5697 5696 5695 5694 5693 5692 5692 5691 5691 5690 5691 5694 5694 5693 5691 5687 5685 5684 5683 5681 5680 5678 5677
5698 5702 5705 5707 5707 5707 5707 5705 5705 5704 5703 5704 5703 5701 5701 5701 5700 5698 5694 5693 5692 5691 5690 5690 5689 5688 5689 5690 5688 5687 5690 5690 5690 5689 5687 5683 5682 5681 5679 5677 5676 5674 5672
5692 5695 5698 5700 5701 5702 5702 5702 5702 5701 5700 5700 5700 5698 5698 5696 5694 5693 5691 5689 5688 5687 5687 5686 5686 5687 5688 5688 5687 5687 5687 5687 5687 5685 5683 5679 5678 5677 5675 5674 5672 5670 5668
5684 5689 5692 5694 5695 5696 5696 5697 5697 5697 5696 5696 5695 5694 5693 5692 5691 5690 5689 5688 5687 5686 5685 5685 5685 5685 5684 5684 5684 5684 5683 5683 5682 5681 5679 5676 5674 5672 5671 5670 5668 5666 5664
5679 5683 5687 5688 5689 5689 5690 5690 5691 5691 5691 5691 5690 5689 5689 5688 5688 5686 5686 5684 5684 5683 5682 5682 5682 5682 5681 5681 5680 5680 5680 5679 5678 5677 5675 5672 5670 5668 5667 5665 5664 5662 5660
5676 5678 5680 5682 5683 5683 5684 5685 5686 5686 5685 5686 5685 5685 5684 5684 5683 5682 5682 5680 5680 5679 5678 5678 5678 5677 5677 5676 5676 5675 5675 5675 5673 5672 5670 5668 5665 5664 5662 5660 5659 5657 5655
5672 5675 5676 5676 5677 5678 5679 5680 5681 5681 5680 5681 5680 5680 5680 5680 5679 5678 5678 5676 5675 5675 5674 5673 5673 5673 5672 5671 5671 5670 5670 5669 5667 5666 5664 5663 5661 5659 5657 5655 5653 5651 5649
5666 5669 5671 5672 5672 5672 5673 5674 5675 5676 5676 5676 5676 5676 5675 5675 5674 5674 5673 5672 5671 5670 5669 5668 5668 5667 5667 5666 5666 5665 5664 5662 5661 5660 5658 5656 5655 5653 5651 5648 5647 5645 5642
5660 5663 5665 5666 5667 5667 5668 5668 5669 5670 5671 5671 5671 5671 5671 5670 5669 5669 5668 5667 5666 5665 5664 5663 5662 5662 5662 5660 5660 5658 5658 5657 5655 5653 5652 5650 5648 5645 5644 5642 5639 5637 5635
5655 5658 5660 5660 5661 5662 5662 5661 5662 5663 5665 5666 5666 5666 5666 5665 5664 5663 5663 5662 5662 5660 5659 5658 5657 5656 5656 5654 5652 5651 5650 5650 5648 5646 5645 5642 5640 5638 5636 5634 5632 5630 5627
5647 5650 5652 5653 5654 5655 5656 5655 5656 5658 5659 5660 5661 5661 5661 5660 5660 5659 5658 5658 5657 5656 5655 5653 5652 5650 5648 5647 5644 5643 5643 5642 5641 5638 5636 5635 5632 5630 5628 5625 5623 5621 5619
5640 5644 5646 5648 5650 5650 5650 5651 5653 5654 5654 5655 5655 5655 5655 5655 5655 5654 5654 5653 5652 5651 5650 5648 5645 5644 5642 5640 5639 5636 5636 5636 5633 5630 5628 5625 5623 5620 5618 5616 5614 5612 5610
5634 5637 5640 5643 5644 5645 5645 5646 5646 5646 5647 5647 5648 5649 5650 5650 5650 5650 5649 5647 5646 5644 5643 5641 5639 5637 5636 5634 5633 5632 5629 5630 5628 5623 5620 5617 5614 5612 5609 5606 5604 5601 5599
5627 5631 5634 5636 5637 5638 5637 5639 5640 5641 5642 5644 5643 5643 5644 5644 5644 5643 5642 5641 5640 5639 5637 5635 5633 5631 5630 5627 5625 5625 5624 5625 5619 5618 5613 5609 5605 5603 5601 5597 5594 5591 5588
5620 5624 5627 5630 5631 5632 5633 5634 5635 5636 5638 5638 5637 5638 5638 5638 5637 5637 5635 5633 5633 5632 5630 5628 5626 5625 5623 5622 5619 5617 5614 5612 5611 5609 5608 5603 5598 5594 5591 5588 5584 5581 5578
5614 5616 5620 5623 5624 5626 5627 5628 5629 5630 5630 5629 5629 5629 5630 5630 5630 5629 5628 5627 5626 5624 5623 5621 5620 5618 5616 5614 5612 5610 5608 5605 5603 5600 5600 5597 5593 5588 5582 5577 5574 5571 5568